Location: �clusier
(49.9361°N, 2.7869°E)
Time: 08:06:44
(UTC+00:00)

Cosmos 2263 Rocket - Pass Details

Date: 16 June 2021
Orbit: 822 x 850 km, 71.0° (Epoch: 31 July)

Event Time Altitude Azimuth Distance (km) Brightness Sun altitude
Rises 20:46:08 0° 325° (NW) 3,420 7.8 -6.2°
Reaches altitude 10° 20:48:45 10° 318° (NW) 2,482 6.5 -6.4°
Maximum altitude 20:53:54 36° 253° (WSW) 1,316 3.5 -7.0°
Drops below altitude 10° 20:59:02 10° 188° (S) 2,471 4.2 -7.5°
Enters shadow 21:01:20 - 181° (S) 3,290 4.8 -7.7°
